User: anonymous   Login
Location: Unspecified
(0.0000°N, 0.0000°E)
Time: 00:39:39
(UTC+00:00)
Language:

ATHENOXAT 1 - Orbit

View from above orbital plane
View from above orbital plane
View from above satellite
View from above satellite

Ground track
Ground track

The orbit data is extracted from the following two-line orbital elements,

1 41168U 15077C   17206.46447833 +.00001814 +00000-0 +64853-4 0  9999
2 41168 014.9886 249.7924 0012350 185.5020 205.3264 15.11668504088844
Epoch (UTC): 25 July 2017 11:08:50
Eccentricity: 0.0012350
inclination: 14.9886°
perigee height: 522 km
apogee height: 539 km
right ascension of ascending node: 249.7924°
argument of perigee: 185.5020°
revolutions per day: 15.11668504
mean anomaly at epoch: 205.3264°
orbit number at epoch: 8884

The dashed part of the orbit path shows where the satellite is in the earth's shadow,  

DLR